Location: Banios
(43.0451°N, 0.2335°E)
Time: 13:52:26
(UTC+00:00)

USA 238 - Pass Details

Date: 25 January 2021
Orbit: 996 x 1216 km, 63.4° (Epoch: 25 February)

Event Time Altitude Azimuth Distance (km) Brightness Sun altitude
Rises 05:28:50 0° 205° (SSW) 3,708 6.4 -20.4°
Reaches altitude 10° 05:31:23 10° 203° (SSW) 2,773 5.7 -20.0°
Maximum altitude 05:37:50 70° 122° (ESE) 1,095 3.9 -18.8°
Drops below altitude 10° 05:44:37 10° 40° (NE) 2,905 6.4 -17.6°
Sets 05:47:21 0° 38° (NE) 3,896 7.0 -17.1°
